Regional Weather Roundup
Issued by NWS

Home | Current Version | Previous Version | Text Only | Print | Product List | Glossary Off
Versions: 1 2 3 4 5 6 7 8 9 10 11 12 13 14 15 16 17 18 19 20 21 22 23 24 25 26 27 28 29 30 31 32 33 34 35 36 37 38 39 40 41 42 43 44 45 46 47 48 49 50

000
ASUS43 KMKX 240021
RWRWI

WISCONSIN REGIONAL WEATHER ROUNDUP
NATIONAL WEATHER SERVICE MILWAUKEE/SULLIVAN WI
600 PM CST THU NOV 23 2017

NOTE: "FAIR" INDICATES FEW OR NO CLOUDS BELOW 12,000 FEET WITH NO
SIGNIFICANT WEATHER AND/OR OBSTRUCTIONS TO VISIBILITY.

WIZ001-002-006>008-014>016-023>028-240100-
NORTHWEST WISCONSIN

CITY           SKY/WX    TMP DP  RH WIND       PRES   REMARKS
SUPERIOR ARPT  CLOUDY    37  25  62 S3        29.70F
6HR MIN TEMP:  33; 6HR MAX TEMP:  40;

ASHLAND        CLOUDY    37  23  56 S3        29.74F
6HR MIN TEMP:  34; 6HR MAX TEMP:  41;

HAYWARD        CLOUDY    38  23  55 S8        29.74F WCI  32
6HR MIN TEMP:  35; 6HR MAX TEMP:  41;

SIREN          CLOUDY    38  23  54 S8        29.73F WCI  32
6HR MIN TEMP:  36; 6HR MAX TEMP:  40;

CUMBERLAND     CLOUDY    34  25  69 S7        29.76F WCI  28
RICE LAKE      CLOUDY    37  24  59 SE9       29.78F WCI  30
6HR MIN TEMP:  34; 6HR MAX TEMP:  42;

CHETEK         CLOUDY    37  23  58 SE5       29.78F WCI  33
6HR MIN TEMP:  36; 6HR MAX TEMP:  42;

LADYSMITH      CLOUDY    37  23  57 S6        29.78F WCI  32
6HR MIN TEMP:  34; 6HR MAX TEMP:  42;

EAU CLAIRE     PTCLDY    32  21  64 S6        29.80F WCI  26
6HR MIN TEMP:  31; 6HR MAX TEMP:  42;

MENOMONIE      MOCLDY    34  23  65 SE6       29.79F WCI  29
6HR MIN TEMP:  33; 6HR MAX TEMP:  44;

NEW RICHMOND   CLEAR     36  22  58 SE6       29.77F WCI  31
6HR MIN TEMP:  36; 6HR MAX TEMP:  43;

OSCEOLA        CLOUDY    39  24  54 SE7       29.78F WCI  34
6HR MIN TEMP:  36; 6HR MAX TEMP:  44;

$$

WIZ003>005-009-010-017-018-240100-
NORTH CENTRAL WISCONSIN

CITY           SKY/WX    TMP DP  RH WIND       PRES   REMARKS
MANITOWISH WTR CLOUDY    33  25  72 S5        29.75F WCI  28
6HR MIN TEMP:  28; 6HR MAX TEMP:  38;

ARBOR VITAE    CLOUDY    32  25  75 CALM      29.77S
6HR MIN TEMP:  32; 6HR MAX TEMP:  39;

WOODRUFF       CLOUDY    32  25  75 CALM      29.77S
6HR MIN TEMP:  32; 6HR MAX TEMP:  39;

RHINELANDER    CLEAR     32  22  66 SW6       29.80R WCI  26
6HR MIN TEMP:  32; 6HR MAX TEMP:  41;

EAGLE RIVER    CLOUDY    28  21  75 S5        29.77S WCI  23
6HR MIN TEMP:  28; 6HR MAX TEMP:  38;

LAND O LAKES   CLOUDY    28  22  79 CALM      29.79R
6HR MIN TEMP:  28; 6HR MAX TEMP:  39;

PHILLIPS       CLOUDY    34  23  64 S6        29.77F WCI  29
6HR MIN TEMP:  31; 6HR MAX TEMP:  39;

TOMAHAWK       CLEAR     32  22  65 CALM      29.81R
6HR MIN TEMP:  29; 6HR MAX TEMP:  40;

MEDFORD        CLEAR     32  22  66 S5        29.81R WCI  27
6HR MIN TEMP:  32; 6HR MAX TEMP:  39;

MERRILL        CLEAR     32  22  68 CALM      29.83R
6HR MIN TEMP:  32; 6HR MAX TEMP:  41;

$$

WIZ029-030-035-036-043>047-240100-
CENTRAL WISCONSIN

CITY           SKY/WX    TMP DP  RH WIND       PRES   REMARKS
WAUSAU         CLOUDY    33  22  63 W5        29.82R WCI  29
6HR MIN TEMP:  33; 6HR MAX TEMP:  40;

MOSINEE        PTCLDY    30  21  69 S3        29.83S
MARSHFIELD     CLEAR     33  20  58 SW6       29.82R WCI  28
6HR MIN TEMP:  33; 6HR MAX TEMP:  41;

STEVENS POINT  CLOUDY    30  19  65 S3        29.83S
6HR MIN TEMP:  27; 6HR MAX TEMP:  40;

WAUPACA        CLOUDY    33  21  61 CALM      29.85F
6HR MIN TEMP:  33; 6HR MAX TEMP:  45;

WAUTOMA        CLOUDY    29  22  75 CALM      29.86F
6HR MIN TEMP:  29; 6HR MAX TEMP:  44;

WISC RAPIDS    CLEAR     34  21  59 SW5       29.84F WCI  30
6HR MIN TEMP:  32; 6HR MAX TEMP:  43;

CAMP DOUGLAS   CLEAR     28  20  71 S3        29.84F
6HR MIN TEMP:  28; 6HR MAX TEMP:  45;

$$

WIZ011>013-019>022-031-037>040-048>050-240100-
NORTHEAST WISCONSIN

CITY           SKY/WX    TMP DP  RH WIND       PRES   REMARKS
ANTIGO         CLEAR     30  24  77 SW5       29.81S WCI  25
6HR MIN TEMP:  29; 6HR MAX TEMP:  38;

SHAWANO        CLEAR     36  21  54 CALM      29.83F
6HR MIN TEMP:  36; 6HR MAX TEMP:  44;

OCONTO         CLEAR     29  20  70 CALM      29.85S
6HR MIN TEMP:  28; 6HR MAX TEMP:  41;

STURGEON BAY   CLEAR     34  21  59 S7        29.87R WCI  28
6HR MIN TEMP:  34; 6HR MAX TEMP:  39;

GREEN BAY      CLOUDY    35  25  66 S6        29.86S WCI  30
6HR MIN TEMP:  35; 6HR MAX TEMP:  42;

MANITOWOC      CLEAR     32  23  69 CALM      29.89R
6HR MIN TEMP:  32; 6HR MAX TEMP:  41;

APPLETON       PTCLDY    34  18  51 SW5       29.83F WCI  30
CLINTONVILLE   CLEAR     30  21  69 S3        29.84F
OSHKOSH        CLEAR     32  23  69 S3        29.86S
6HR MIN TEMP:  31; 6HR MAX TEMP:  42;

$$

WIZ032>034-041-042-053>061-240100-
SOUTHWEST WISCONSIN

CITY           SKY/WX    TMP DP  RH WIND       PRES   REMARKS
LA CROSSE      CLEAR     36  23  59 SE5       29.86R WCI  32
6HR MIN TEMP:  36; 6HR MAX TEMP:  46;

SPARTA         CLEAR     30  22  71 CALM      29.88R
6HR MIN TEMP:  29; 6HR MAX TEMP:  44;

VIROQUA        CLEAR     37  25  62 S3        29.86R
6HR MIN TEMP:  36; 6HR MAX TEMP:  43;

BOSCOBEL       CLEAR     33  24  69 CALM      29.89R
6HR MIN TEMP:  32; 6HR MAX TEMP:  48;

PRAIRIE DU CHI CLEAR     35  23  62 E3        29.88S
6HR MIN TEMP:  35; 6HR MAX TEMP:  46;

PLATTEVILLE    CLEAR     37  25  63 S5        29.89R WCI  33
6HR MIN TEMP:  37; 6HR MAX TEMP:  46;

$$

WIZ056-057-062-063-064-067-068-240100-
SOUTH CENTRAL WISCONSIN

CITY           SKY/WX    TMP DP  RH WIND       PRES   REMARKS
REEDSBURG      CLEAR     34  22  61 S5        29.87S WCI  30
6HR MIN TEMP:  34; 6HR MAX TEMP:  44;

BARABOO/DELLS  CLEAR     33  21  62 S5        29.86S WCI  28
6HR MIN TEMP:  31; 6HR MAX TEMP:  44;

LONE ROCK      NOT AVBL
MINERAL POINT  CLEAR     37  27  65 S6        29.88S WCI  33
MADISON        CLEAR     33  23  66 CALM      29.88S
6HR MIN TEMP:  32; 6HR MAX TEMP:  44;

MIDDLETON      CLEAR     31  25  78 CALM      29.88S
6HR MIN TEMP:  31; 6HR MAX TEMP:  47;

WATERTOWN      CLEAR     32  24  72 S3        29.88F
6HR MIN TEMP:  31; 6HR MAX TEMP:  43;

MONROE         CLEAR     37  25  60 SW5       29.89S WCI  34
JANESVILLE     CLEAR     39  25  56 S3        29.90F
$$

WIZ051-052-058>065-066-070>072-240100-
SOUTHEAST WISCONSIN

CITY           SKY/WX    TMP DP  RH WIND       PRES   REMARKS
MILWAUKEE      CLEAR     39  24  55 SW5       29.91S
6HR MIN TEMP:  39; 6HR MAX TEMP:  45;

WAUKESHA       CLEAR     34  21  60 SW3       29.92R
MILWAUKEE/TIMM CLEAR     36  19  51 SW3       29.91F
RACINE         CLEAR     36  24  62 W5        29.94R WCI  32
6HR MIN TEMP:  35; 6HR MAX TEMP:  45;

BURLINGTON     CLEAR     32  29  88 CALM      29.91S
6HR MIN TEMP:  32; 6HR MAX TEMP:  47;

KENOSHA        CLEAR     37  23  56 SW6       29.92R WCI  32
6HR MIN TEMP:  36; 6HR MAX TEMP:  45;

FOND DU LAC    CLOUDY    33  21  61 S6        29.87S WCI  28
6HR MIN TEMP:  33; 6HR MAX TEMP:  43;

SHEBOYGAN      CLEAR     33  23  66 SW6       29.88F WCI  28
6HR MIN TEMP:  30; 6HR MAX TEMP:  43;

WEST BEND      CLEAR     32  21  64 CALM      29.88F
JUNEAU         CLEAR     34  23  64 S3        29.89S
6HR MIN TEMP:  34; 6HR MAX TEMP:  41;

$$

LSZ147-162-240100-
LAKE SUPERIOR

STATION/POSITION TIME  TEMP    WIND        PRES    WAVE
                       AIR SEA DIR/SP/G            HT/PER
                 (UTC) (F)     (DEG/KT/KT) (MB)    (FT/S)
DEVILS ISLAND    0000   36     150/  4/  5 1007.1F
SAXON HARBOR     0000   33     160/  3/ 14 1006.4
$$

LMZ867-665-643>646-240100-
LAKE MICHIGAN

STATION/POSITION TIME  TEMP    WIND        PRES    WAVE
                       AIR SEA DIR/SP/G            HT/PER
                 (UTC) (F)     (DEG/KT/KT) (MB)    (FT/S)
N MID LAKE BUOY  2350



USA.gov is the U.S. government's official web portal to all federal, state and local government web resources and services.